Location: Boiro
(42.6475°N, 8.8834°W)
Time: 21:27:52
(UTC+01:00)

Vanguard 1 - Pass Details

Date: 04 December 2021
Orbit: 652 x 3830 km, 34.2° (Epoch: 19 January)

Event Time Altitude Azimuth Distance (km) Brightness Sun altitude
Rises 08:41:57 0° 283° (WNW) 7,442 13.9 -2.0°
Reaches altitude 10° 08:49:27 10° 269° (W) 5,888 13.5 -0.8°
Maximum altitude 08:59:32 19° 232° (SW) 4,205 13.1 0.8°
Drops below altitude 10° 09:06:53 10° 192° (SSW) 4,089 13.5 1.9°
Sets 09:10:48 0° 175° (S) 4,596 14.1 2.5°
